Zurück zum Katalog

STARLINK-34044

AktivKommunikationVLEO
NORAD 63846·PAYLOAD·🇺🇸 United States

Gestartet May 7, 2025 von Cape Canaveral Space Force Station

Loading…

Nächste Überflüge (nächste 24 Stunden)

TLE

AktuellSource: CelesTrak SupGP

Epoche: Sep 14, 2026, 22:50 UTC

1 63846C 25093L   26257.95187500  .00040212  00000+0  14566-2 0  2572
2 63846  43.0019  88.8089 0001362 271.3297 325.1081 15.27554884    10

Verfolge STARLINK-34044 in Echtzeit mit AllMySat

Download on the App Store